| time (UTC) | temp F | wind direction | speed knots | gust knots | rain 1hr in | rain 24hr in | rain mn in | humidity % | barometer mb |
| 20260509165035 | 78 | 234 | 0.0 | 0.9 | 0.00 | 0.35 | 0.00 | 44 | 1009.1 |
| 20260509164601 | 78 | 248 | 0.0 | 0.9 | 0.00 | 0.35 | 0.00 | 44 | 1009.1 |
| 20260509164026 | 77 | 254 | 0.0 | 0.9 | 0.00 | 0.35 | 0.00 | 49 | 1009.2 |
| 20260509163532 | 77 | 217 | 0.0 | 0.9 | 0.00 | 0.35 | 0.00 | 49 | 1009.2 |
| 20260509163038 | 76 | 244 | 0.0 | 3.5 | 0.00 | 0.35 | 0.00 | 50 | 1009.3 |
| 20260509162525 | 76 | 271 | 0.0 | 3.5 | 0.00 | 0.35 | 0.00 | 49 | 1009.2 |
| 20260509162029 | 76 | 198 | 0.0 | 1.7 | 0.00 | 0.35 | 0.00 | 52 | 1009.2 |
| 20260509161539 | 75 | 261 | 0.0 | 1.7 | 0.00 | 0.35 | 0.00 | 51 | 1009.2 |
| 20260509161025 | 75 | 232 | 0.0 | 1.7 | 0.00 | 0.35 | 0.00 | 52 | 1009.3 |
| 20260509160531 | 74 | 263 | 0.0 | 3.5 | 0.00 | 0.35 | 0.00 | 54 | 1009.3 |
| 20260509160037 | 74 | 244 | 0.0 | 3.5 | 0.00 | 0.35 | 0.00 | 54 | 1009.3 |
| 20260509155523 | 73 | 260 | 0.0 | 1.7 | 0.00 | 0.35 | 0.00 | 57 | 1009.2 |
| 20260509155047 | 73 | 214 | 0.0 | 0.9 | 0.00 | 0.35 | 0.00 | 57 | 1009.2 |
| 20260509154552 | 72 | 227 | 0.0 | 0.9 | 0.00 | 0.35 | 0.00 | 60 | 1009.1 |
| 20260509154037 | 72 | 216 | 0.0 | 0.9 | 0.00 | 0.35 | 0.00 | 62 | 1009.2 |
| 20260509153523 | 71 | 221 | 0.0 | 0.9 | 0.00 | 0.35 | 0.00 | 65 | 1009.1 |
| 20260509153029 | 71 | 244 | 0.0 | 0.9 | 0.00 | 0.35 | 0.00 | 65 | 1009.1 |
| 20260509152535 | 70 | 265 | 0.0 | 0.9 | 0.00 | 0.35 | 0.35 | 68 | 1009.1 |
| 20260509152023 | 70 | 218 | 0.0 | 0.9 | 0.00 | 0.35 | 0.35 | 69 | 1009.1 |
| 20260509151549 | 69 | 231 | 0.0 | 0.0 | 0.00 | 0.35 | 0.35 | 71 | 1009.2 |
| 20260509151034 | 68 | 223 | 0.0 | 0.9 | 0.00 | 0.35 | 0.35 | 74 | 1009.1 |
| 20260509150539 | 68 | 209 | 0.0 | 0.9 | 0.00 | 0.35 | 0.35 | 73 | 1009.1 |
| 20260509150024 | 67 | 250 | 0.0 | 0.9 | 0.00 | 0.35 | 0.35 | 77 | 1009.2 |
| 20260509145529 | 67 | 234 | 0.0 | 0.9 | 0.00 | 0.35 | 0.35 | 78 | 1009.2 |
| 20260509145032 | 67 | 229 | 0.0 | 0.9 | 0.00 | 0.35 | 0.35 | 80 | 1009.1 |
| 20260509144558 | 66 | 229 | 0.0 | 0.9 | 0.00 | 0.35 | 0.35 | 81 | 1009.1 |
| 20260509144022 | 65 | 215 | 0.0 | 0.9 | 0.00 | 0.35 | 0.35 | 82 | 1009.1 |
| 20260509143528 | 65 | 209 | 0.0 | 0.9 | 0.00 | 0.35 | 0.35 | 85 | 1009.1 |
| 20260509143034 | 64 | 239 | 0.0 | 0.9 | 0.01 | 0.35 | 0.35 | 85 | 1009.0 |
| 20260509142540 | 63 | 210 | 0.0 | 0.9 | 0.01 | 0.35 | 0.35 | 86 | 1009.0 |
| 20260509142025 | 62 | 216 | 0.0 | 1.7 | 0.01 | 0.35 | 0.35 | 87 | 1008.9 |
| 20260509141530 | 62 | 227 | 0.0 | 1.7 | 0.01 | 0.35 | 0.35 | 89 | 1008.9 |
| 20260509141052 | 61 | 248 | 0.0 | 1.7 | 0.01 | 0.35 | 0.35 | 89 | 1008.9 |
| 20260509140535 | 60 | 218 | 0.0 | 0.9 | 0.01 | 0.35 | 0.35 | 90 | 1008.8 |
| 20260509140038 | 60 | 228 | 0.0 | 0.0 | 0.01 | 0.35 | 0.35 | 91 | 1008.8 |
| 20260509135522 | 59 | 252 | 0.0 | 0.0 | 0.01 | 0.35 | 0.35 | 91 | 1008.8 |
| 20260509135045 | 59 | 207 | 0.0 | 0.0 | 0.01 | 0.35 | 0.35 | 91 | 1008.7 |
| 20260509134529 | 59 | 213 | 0.0 | 0.0 | 0.01 | 0.35 | 0.35 | 91 | 1008.7 |
| 20260509134030 | 58 | 208 | 0.0 | 0.9 | 0.01 | 0.35 | 0.35 | 91 | 1008.7 |
| 20260509133537 | 58 | 229 | 0.0 | 0.9 | 0.01 | 0.35 | 0.35 | 91 | 1008.7 |
| 20260509133042 | 58 | 217 | 0.0 | 0.0 | 0.00 | 0.34 | 0.34 | 91 | 1008.7 |
| 20260509132526 | 57 | 203 | 0.0 | 0.0 | 0.00 | 0.34 | 0.34 | 91 | 1008.6 |
| 20260509132029 | 57 | 190 | 0.0 | 0.9 | 0.00 | 0.34 | 0.34 | 91 | 1008.6 |
| 20260509131555 | 57 | 200 | 0.0 | 2.6 | 0.00 | 0.34 | 0.34 | 91 | 1008.6 |
| 20260509131034 | 57 | 237 | 0.0 | 2.6 | 0.00 | 0.34 | 0.34 | 91 | 1008.5 |
| 20260509130522 | 57 | 233 | 0.0 | 0.0 | 0.00 | 0.34 | 0.34 | 91 | 1008.6 |
| 20260509130026 | 56 | 179 | 0.0 | 0.0 | 0.00 | 0.34 | 0.34 | 91 | 1008.5 |
| 20260509125529 | 56 | 234 | 0.0 | 0.0 | 0.00 | 0.34 | 0.34 | 91 | 1008.5 |
| 20260509125031 | 56 | 232 | 0.0 | 0.0 | 0.00 | 0.34 | 0.34 | 91 | 1008.5 |
| 20260509124537 | 56 | 190 | 0.0 | 0.0 | 0.00 | 0.34 | 0.34 | 91 | 1008.5 |
| 20260509124038 | 56 | 200 | 0.0 | 0.0 | 0.00 | 0.34 | 0.34 | 91 | 1008.4 |
| 20260509123544 | 55 | 230 | 0.0 | 0.0 | 0.00 | 0.34 | 0.34 | 91 | 1008.4 |
| 20260509123029 | 55 | 194 | 0.0 | 0.0 | 0.00 | 0.34 | 0.34 | 91 | 1008.4 |
| 20260509122533 | 55 | 205 | 0.0 | 0.0 | 0.00 | 0.34 | 0.34 | 91 | 1008.4 |
| 20260509122035 | 55 | 199 | 0.0 | 0.0 | 0.00 | 0.34 | 0.34 | 91 | 1008.3 |
| 20260509121601 | 55 | 198 | 0.0 | 0.0 | 0.00 | 0.34 | 0.34 | 91 | 1008.3 |
| 20260509121025 | 55 | 198 | 0.0 | 0.0 | 0.00 | 0.34 | 0.34 | 91 | 1008.3 |
| 20260509120551 | 55 | 198 | 0.0 | 0.0 | 0.00 | 0.34 | 0.34 | 91 | 1008.2 |
| 20260509120037 | 55 | 201 | 0.0 | 0.0 | 0.00 | 0.34 | 0.34 | 91 | 1008.2 |
| 20260509115523 | 55 | 205 | 0.0 | 0.0 | 0.00 | 0.34 | 0.34 | 91 | 1008.2 |
| 20260509115027 | 55 | 230 | 0.0 | 0.0 | 0.00 | 0.34 | 0.34 | 91 | 1008.2 |
| 20260509114532 | 55 | 231 | 0.0 | 0.0 | 0.00 | 0.34 | 0.34 | 91 | 1008.1 |
| 20260509114040 | 55 | 240 | 0.0 | 0.0 | 0.00 | 0.34 | 0.34 | 91 | 1008.1 |
| 20260509113526 | 54 | 211 | 0.0 | 0.0 | 0.00 | 0.34 | 0.34 | 91 | 1008.1 |
| 20260509113052 | 55 | 196 | 0.0 | 0.0 | 0.00 | 0.34 | 0.34 | 91 | 1007.9 |
| 20260509112538 | 55 | 223 | 0.0 | 0.0 | 0.00 | 0.34 | 0.34 | 91 | 1007.8 |
| 20260509112022 | 55 | 230 | 0.0 | 0.0 | 0.00 | 0.34 | 0.34 | 91 | 1007.8 |
| 20260509111529 | 54 | 228 | 0.0 | 0.0 | 0.00 | 0.34 | 0.34 | 91 | 1007.8 |
| 20260509111055 | 54 | 223 | 0.0 | 0.0 | 0.00 | 0.34 | 0.34 | 91 | 1007.8 |
| 20260509110523 | 54 | 223 | 0.0 | 0.0 | 0.00 | 0.34 | 0.34 | 91 | 1007.8 |
| 20260509110029 | 54 | 221 | 0.0 | 0.0 | 0.00 | 0.34 | 0.34 | 91 | 1007.7 |
| 20260509105536 | 54 | 221 | 0.0 | 0.0 | 0.00 | 0.34 | 0.34 | 91 | 1007.7 |
| 20260509105039 | 54 | 221 | 0.0 | 0.0 | 0.00 | 0.34 | 0.34 | 91 | 1007.7 |
| 20260509104524 | 54 | 221 | 0.0 | 0.0 | 0.00 | 0.34 | 0.34 | 91 | 1007.8 |
| 20260509104030 | 54 | 221 | 0.0 | 0.0 | 0.00 | 0.34 | 0.34 | 91 | 1007.8 |
| 20260509103536 | 54 | 221 | 0.0 | 0.0 | 0.00 | 0.34 | 0.34 | 91 | 1007.7 |
| 20260509103021 | 54 | 221 | 0.0 | 0.0 | 0.00 | 0.34 | 0.34 | 91 | 1007.7 |
| 20260509102527 | 54 | 221 | 0.0 | 0.0 | 0.00 | 0.34 | 0.34 | 91 | 1007.7 |
| 20260509102032 | 54 | 221 | 0.0 | 0.0 | 0.00 | 0.34 | 0.34 | 91 | 1007.7 |
| 20260509101559 | 54 | 221 | 0.0 | 0.0 | 0.00 | 0.34 | 0.34 | 91 | 1007.8 |
| 20260509101045 | 54 | 221 | 0.0 | 0.0 | 0.00 | 0.34 | 0.34 | 91 | 1007.8 |
| 20260509100529 | 54 | 221 | 0.0 | 0.0 | 0.00 | 0.34 | 0.34 | 91 | 1007.8 |
| 20260509100021 | 54 | 221 | 0.0 | 0.0 | 0.00 | 0.34 | 0.34 | 91 | 1007.9 |
| 20260509095528 | 54 | 221 | 0.0 | 0.0 | 0.00 | 0.34 | 0.34 | 91 | 1007.9 |
| 20260509095054 | 54 | 221 | 0.0 | 0.0 | 0.00 | 0.34 | 0.34 | 91 | 1007.9 |
| 20260509094540 | 54 | 221 | 0.0 | 0.0 | 0.00 | 0.34 | 0.34 | 91 | 1007.9 |
| 20260509094045 | 54 | 218 | 0.0 | 0.0 | 0.00 | 0.34 | 0.34 | 91 | 1007.9 |
| 20260509093531 | 54 | 218 | 0.0 | 0.0 | 0.00 | 0.34 | 0.34 | 91 | 1008.0 |
| 20260509093039 | 54 | 218 | 0.0 | 0.0 | 0.00 | 0.34 | 0.34 | 91 | 1007.9 |
| 20260509092525 | 54 | 216 | 0.0 | 0.0 | 0.00 | 0.34 | 0.34 | 91 | 1008.0 |
| 20260509092029 | 54 | 216 | 0.0 | 0.0 | 0.00 | 0.34 | 0.34 | 91 | 1008.0 |
| 20260509091535 | 55 | 216 | 0.0 | 0.0 | 0.00 | 0.34 | 0.34 | 91 | 1008.0 |
| 20260509091021 | 55 | 213 | 0.0 | 0.0 | 0.00 | 0.34 | 0.34 | 91 | 1008.0 |
| 20260509090531 | 55 | 213 | 0.0 | 0.0 | 0.00 | 0.34 | 0.34 | 91 | 1008.0 |
| 20260509090035 | 55 | 213 | 0.0 | 0.0 | 0.00 | 0.34 | 0.34 | 91 | 1007.9 |
| 20260509085559 | 55 | 213 | 0.0 | 0.0 | 0.00 | 0.34 | 0.34 | 91 | 1007.9 |
| 20260509085044 | 55 | 213 | 0.0 | 0.0 | 0.00 | 0.34 | 0.34 | 91 | 1007.8 |
| 20260509084526 | 55 | 213 | 0.0 | 0.0 | 0.00 | 0.34 | 0.34 | 91 | 1007.8 |
| 20260509084031 | 55 | 210 | 0.0 | 0.0 | 0.00 | 0.34 | 0.34 | 91 | 1007.8 |
| 20260509083537 | 54 | 200 | 0.0 | 0.0 | 0.00 | 0.34 | 0.34 | 91 | 1007.6 |
| 20260509083023 | 55 | 198 | 0.0 | 0.0 | 0.00 | 0.34 | 0.34 | 91 | 1007.6 |
| 20260509082529 | 55 | 198 | 0.0 | 0.0 | 0.00 | 0.34 | 0.34 | 91 | 1007.7 |
| 20260509082034 | 54 | 197 | 0.0 | 0.0 | 0.00 | 0.34 | 0.34 | 91 | 1007.7 |
| 20260509081601 | 54 | 196 | 0.0 | 0.0 | 0.00 | 0.34 | 0.34 | 91 | 1007.7 |
| 20260509081025 | 54 | 196 | 0.0 | 0.0 | 0.00 | 0.34 | 0.34 | 91 | 1007.6 |
| 20260509080535 | 54 | 196 | 0.0 | 0.0 | 0.00 | 0.34 | 0.34 | 91 | 1007.7 |
| 20260509080021 | 55 | 196 | 0.0 | 0.0 | 0.00 | 0.34 | 0.34 | 91 | 1007.6 |
| 20260509075527 | 55 | 205 | 0.0 | 0.0 | 0.00 | 0.34 | 0.34 | 91 | 1007.6 |
| 20260509075029 | 55 | 215 | 0.0 | 0.0 | 0.00 | 0.34 | 0.34 | 91 | 1007.6 |
| 20260509074535 | 55 | 227 | 0.0 | 0.0 | 0.00 | 0.34 | 0.34 | 91 | 1007.6 |
| 20260509074101 | 54 | 231 | 0.0 | 0.0 | 0.00 | 0.34 | 0.34 | 91 | 1007.6 |
| 20260509073526 | 54 | 231 | 0.0 | 0.0 | 0.00 | 0.34 | 0.34 | 91 | 1007.6 |
| 20260509073032 | 55 | 213 | 0.0 | 0.0 | 0.00 | 0.34 | 0.34 | 91 | 1007.6 |
| 20260509072534 | 55 | 213 | 0.0 | 0.0 | 0.00 | 0.34 | 0.34 | 91 | 1007.7 |
| 20260509072105 | 55 | 212 | 0.0 | 0.0 | 0.00 | 0.34 | 0.34 | 91 | 1007.7 |
| 20260509071526 | 55 | 212 | 0.0 | 0.0 | 0.00 | 0.34 | 0.34 | 91 | 1007.6 |
| 20260509071032 | 55 | 212 | 0.0 | 0.0 | 0.00 | 0.34 | 0.34 | 91 | 1007.6 |
| 20260509070523 | 55 | 211 | 0.0 | 0.0 | 0.00 | 0.34 | 0.34 | 91 | 1007.5 |
| 20260509070048 | 55 | 233 | 0.0 | 0.0 | 0.00 | 0.34 | 0.34 | 91 | 1007.7 |
| 20260509065552 | 55 | 222 | 0.0 | 0.0 | 0.00 | 0.34 | 0.34 | 91 | 1007.6 |
| 20260509065055 | 55 | 234 | 0.0 | 0.0 | 0.00 | 0.34 | 0.34 | 91 | 1007.6 |
| 20260509064540 | 55 | 186 | 0.0 | 0.0 | 0.00 | 0.34 | 0.34 | 91 | 1007.7 |
| 20260509064023 | 56 | 219 | 0.0 | 0.0 | 0.00 | 0.34 | 0.34 | 91 | 1007.7 |
| 20260509063529 | 56 | 199 | 0.0 | 0.0 | 0.00 | 0.34 | 0.34 | 91 | 1007.6 |
| 20260509063035 | 56 | 227 | 0.0 | 0.0 | 0.00 | 0.34 | 0.34 | 91 | 1007.6 |
| 20260509062601 | 56 | 227 | 0.0 | 0.0 | 0.00 | 0.34 | 0.34 | 91 | 1007.6 |
| 20260509062023 | 56 | 227 | 0.0 | 0.0 | 0.00 | 0.34 | 0.34 | 91 | 1007.7 |
| 20260509061529 | 56 | 227 | 0.0 | 0.0 | 0.00 | 0.34 | 0.34 | 91 | 1007.7 |
| 20260509061035 | 56 | 227 | 0.0 | 0.0 | 0.00 | 0.34 | 0.34 | 90 | 1007.7 |
| 20260509060541 | 56 | 227 | 0.0 | 0.0 | 0.00 | 0.34 | 0.34 | 91 | 1007.7 |
| 20260509060031 | 56 | 227 | 0.0 | 0.0 | 0.00 | 0.34 | 0.34 | 91 | 1007.8 |
| 20260509055536 | 56 | 227 | 0.0 | 0.0 | 0.00 | 0.34 | 0.34 | 91 | 1007.8 |
| 20260509055043 | 56 | 227 | 0.0 | 0.0 | 0.00 | 0.34 | 0.34 | 90 | 1007.8 |
| 20260509054527 | 56 | 227 | 0.0 | 0.0 | 0.01 | 0.34 | 0.34 | 91 | 1007.8 |
| 20260509054034 | 56 | 227 | 0.0 | 0.0 | 0.01 | 0.34 | 0.34 | 91 | 1007.8 |
| 20260509053540 | 56 | 227 | 0.0 | 0.0 | 0.01 | 0.34 | 0.34 | 91 | 1007.9 |
| 20260509053027 | 56 | 227 | 0.0 | 0.0 | 0.01 | 0.34 | 0.34 | 91 | 1008.0 |
| 20260509052534 | 56 | 227 | 0.0 | 0.0 | 0.01 | 0.34 | 0.34 | 90 | 1008.0 |
| 20260509052040 | 56 | 227 | 0.0 | 0.0 | 0.01 | 0.34 | 0.34 | 90 | 1008.0 |
| 20260509051546 | 56 | 227 | 0.0 | 0.0 | 0.01 | 0.34 | 0.34 | 91 | 1008.1 |
| 20260509051032 | 56 | 227 | 0.0 | 0.0 | 0.01 | 0.34 | 0.34 | 90 | 1008.1 |
| 20260509050557 | 56 | 227 | 0.0 | 0.0 | 0.01 | 0.34 | 0.34 | 90 | 1008.0 |
| 20260509050027 | 56 | 227 | 0.0 | 0.0 | 0.01 | 0.34 | 0.34 | 90 | 1008.0 |
| 20260509045534 | 56 | 227 | 0.0 | 0.0 | 0.01 | 0.34 | 0.34 | 90 | 1008.0 |
| 20260509045040 | 56 | 227 | 0.0 | 0.0 | 0.01 | 0.34 | 0.34 | 90 | 1008.0 |
| 20260509044545 | 56 | 227 | 0.0 | 0.0 | 0.00 | 0.33 | 0.33 | 90 | 1008.0 |
| 20260509044050 | 56 | 227 | 0.0 | 0.0 | 0.00 | 0.33 | 0.33 | 90 | 1007.9 |
| 20260509043536 | 56 | 227 | 0.0 | 0.0 | 0.00 | 0.33 | 0.33 | 90 | 1007.9 |
| 20260509043022 | 56 | 227 | 0.0 | 0.0 | 0.00 | 0.33 | 0.33 | 90 | 1007.9 |
| 20260509042548 | 57 | 227 | 0.0 | 0.0 | 0.00 | 0.33 | 0.33 | 90 | 1008.0 |
| 20260509042033 | 57 | 227 | 0.0 | 0.0 | 0.00 | 0.33 | 0.33 | 90 | 1008.0 |
| 20260509041538 | 57 | 227 | 0.0 | 0.0 | 0.00 | 0.33 | 0.33 | 90 | 1008.0 |
| 20260509041044 | 57 | 227 | 0.0 | 0.0 | 0.00 | 0.33 | 0.33 | 90 | 1007.8 |
| 20260509040528 | 57 | 227 | 0.0 | 0.0 | 0.00 | 0.33 | 0.33 | 90 | 1007.9 |
| 20260509040053 | 57 | 227 | 0.0 | 0.0 | 0.00 | 0.33 | 0.33 | 89 | 1007.7 |
| 20260509035537 | 57 | 227 | 0.0 | 0.0 | 0.00 | 0.33 | 0.33 | 89 | 1007.8 |
| 20260509035042 | 57 | 227 | 0.0 | 0.0 | 0.00 | 0.33 | 0.33 | 89 | 1007.7 |
| 20260509034526 | 57 | 227 | 0.0 | 0.0 | 0.00 | 0.33 | 0.33 | 89 | 1007.8 |
| 20260509034034 | 58 | 227 | 0.0 | 0.0 | 0.00 | 0.33 | 0.33 | 89 | 1007.8 |
| 20260509033521 | 58 | 227 | 0.0 | 0.0 | 0.00 | 0.33 | 0.33 | 89 | 1007.8 |
| 20260509033026 | 58 | 227 | 0.0 | 0.0 | 0.02 | 0.33 | 0.33 | 89 | 1007.7 |
| 20260509032531 | 58 | 227 | 0.0 | 0.0 | 0.12 | 0.33 | 0.33 | 89 | 1007.7 |
| 20260509032037 | 58 | 227 | 0.0 | 0.0 | 0.17 | 0.33 | 0.33 | 89 | 1007.8 |
| 20260509031602 | 58 | 227 | 0.0 | 0.0 | 0.21 | 0.33 | 0.33 | 89 | 1007.7 |
| 20260509031026 | 59 | 227 | 0.0 | 0.0 | 0.21 | 0.33 | 0.33 | 89 | 1007.5 |
| 20260509030531 | 59 | 227 | 0.0 | 0.0 | 0.21 | 0.33 | 0.33 | 88 | 1007.5 |
| 20260509030037 | 59 | 227 | 0.0 | 0.0 | 0.21 | 0.33 | 0.33 | 88 | 1007.4 |
| 20260509025522 | 59 | 227 | 0.0 | 0.0 | 0.21 | 0.33 | 0.33 | 88 | 1007.4 |
| 20260509025027 | 59 | 227 | 0.0 | 0.0 | 0.21 | 0.33 | 0.33 | 88 | 1007.4 |
| 20260509024537 | 59 | 227 | 0.0 | 0.0 | 0.22 | 0.33 | 0.33 | 88 | 1007.3 |
| 20260509024102 | 60 | 227 | 0.0 | 0.0 | 0.27 | 0.33 | 0.33 | 88 | 1007.1 |
| 20260509023526 | 60 | 232 | 0.0 | 0.0 | 0.32 | 0.33 | 0.33 | 88 | 1007.1 |
| 20260509023032 | 60 | 190 | 0.0 | 0.0 | 0.31 | 0.31 | 0.31 | 88 | 1007.1 |
| 20260509022537 | 61 | 323 | 0.0 | 0.0 | 0.21 | 0.21 | 0.21 | 88 | 1007.5 |
| 20260509022022 | 61 | 86 | 0.0 | 0.0 | 0.15 | 0.15 | 0.15 | 88 | 1007.6 |
| 20260509021526 | 61 | 360 | 0.0 | 0.0 | 0.12 | 0.12 | 0.12 | 88 | 1007.6 |
| 20260509021052 | 61 | 46 | 0.0 | 0.0 | 0.12 | 0.12 | 0.12 | 88 | 1007.3 |
| 20260509020556 | 61 | 46 | 0.0 | 0.0 | 0.12 | 0.12 | 0.12 | 88 | 1007.1 |
| 20260509020100 | 61 | 47 | 0.0 | 0.0 | 0.12 | 0.12 | 0.12 | 87 | 1006.9 |
| 20260509015523 | 62 | 48 | 0.0 | 0.0 | 0.12 | 0.12 | 0.12 | 86 | 1006.6 |
| 20260509015028 | 62 | 62 | 0.0 | 0.9 | 0.12 | 0.12 | 0.12 | 85 | 1006.5 |
| 20260509014534 | 63 | 95 | 0.0 | 2.6 | 0.10 | 0.10 | 0.10 | 84 | 1006.6 |
| 20260509014022 | 64 | 333 | 0.0 | 2.6 | 0.06 | 0.06 | 0.06 | 83 | 1006.5 |
| 20260509013528 | 65 | 36 | 0.0 | 0.9 | 0.00 | 0.00 | 0.01 | 82 | 1007.2 |
| 20260509013033 | 65 | 15 | 0.0 | 0.9 | 0.00 | 0.00 | 0.00 | 80 | 1006.1 |
| 20260509012559 | 66 | 294 | 0.0 | 0.0 | 0.00 | 0.00 | 0.00 | 78 | 1005.9 |
| 20260509012022 | 67 | 265 | 0.0 | 0.0 | 0.00 | 0.00 | 0.00 | 76 | 1005.5 |
| 20260509011528 | 68 | 355 | 0.0 | 0.0 | 0.00 | 0.00 | 0.00 | 73 | 1005.0 |
| 20260509011053 | 68 | 23 | 0.0 | 0.0 | 0.00 | 0.00 | 0.00 | 70 | 1004.8 |
| 20260509010557 | 69 | 47 | 0.0 | 0.0 | 0.00 | 0.00 | 0.00 | 67 | 1004.7 |
| 20260509005525 | 69 | 192 | 0.0 | 0.0 | 0.00 | 0.00 | 0.00 | 66 | 1004.7 |
| 20260509005031 | 69 | 192 | 0.0 | 0.0 | 0.00 | 0.00 | 0.00 | 66 | 1004.8 |
| 20260509004557 | 69 | 192 | 0.0 | 0.0 | 0.00 | 0.00 | 0.00 | 67 | 1004.8 |
| 20260509004040 | 69 | 165 | 0.0 | 0.0 | 0.00 | 0.00 | 0.00 | 68 | 1004.9 |
| 20260509003526 | 69 | 161 | 0.0 | 0.0 | 0.00 | 0.00 | 0.00 | 68 | 1004.8 |
| 20260509003031 | 68 | 161 | 0.0 | 0.0 | 0.00 | 0.00 | 0.00 | 69 | 1004.7 |
| 20260509002557 | 68 | 116 | 0.0 | 0.0 | 0.00 | 0.00 | 0.00 | 70 | 1004.7 |
| 20260509002024 | 68 | 116 | 0.0 | 0.0 | 0.00 | 0.00 | 0.00 | 70 | 1004.6 |
| 20260509001530 | 68 | 134 | 0.0 | 0.0 | 0.00 | 0.00 | 0.00 | 70 | 1004.4 |
| 20260509001035 | 68 | 158 | 0.0 | 0.0 | 0.00 | 0.00 | 0.00 | 70 | 1004.3 |
| 20260509000540 | 69 | 144 | 0.0 | 0.0 | 0.00 | 0.00 | 0.00 | 69 | 1004.4 |
| 20260509000046 | 69 | 134 | 0.0 | 0.0 | 0.00 | 0.00 | 0.00 | 69 | 1004.2 |
| 20260508235530 | 69 | 109 | 0.0 | 0.0 | 0.00 | 0.00 | 0.00 | 68 | 1004.3 |
| 20260508235036 | 69 | 114 | 0.0 | 0.0 | 0.00 | 0.00 | 0.00 | 68 | 1004.3 |
| 20260508234522 | 69 | 128 | 0.0 | 0.0 | 0.00 | 0.00 | 0.00 | 67 | 1004.3 |
| 20260508234026 | 69 | 138 | 0.0 | 0.0 | 0.00 | 0.00 | 0.00 | 68 | 1004.4 |
| 20260508233534 | 69 | 134 | 0.0 | 0.0 | 0.00 | 0.00 | 0.00 | 67 | 1004.6 |
| 20260508233039 | 69 | 118 | 0.0 | 0.0 | 0.00 | 0.00 | 0.00 | 66 | 1004.8 |
| 20260508232530 | 69 | 138 | 0.0 | 0.0 | 0.00 | 0.00 | 0.00 | 66 | 1005.0 |
| 20260508232036 | 69 | 141 | 0.0 | 0.0 | 0.00 | 0.00 | 0.00 | 66 | 1005.1 |
| 20260508231523 | 69 | 148 | 0.0 | 0.0 | 0.00 | 0.00 | 0.00 | 65 | 1005.3 |
| 20260508231030 | 69 | 106 | 0.0 | 0.0 | 0.00 | 0.00 | 0.00 | 66 | 1005.2 |
| 20260508230537 | 69 | 93 | 0.0 | 0.0 | 0.00 | 0.00 | 0.00 | 65 | 1005.1 |
| 20260508230044 | 69 | 127 | 0.0 | 0.0 | 0.00 | 0.00 | 0.00 | 65 | 1005.2 |
| 20260508225551 | 70 | 80 | 0.0 | 0.0 | 0.00 | 0.00 | 0.00 | 65 | 1005.6 |
| 20260508225037 | 70 | 41 | 0.0 | 0.0 | 0.00 | 0.00 | 0.00 | 64 | 1005.8 |
| 20260508224544 | 70 | 40 | 0.0 | 0.0 | 0.00 | 0.00 | 0.00 | 64 | 1005.9 |
| 20260508224030 | 70 | 355 | 0.0 | 0.0 | 0.00 | 0.00 | 0.00 | 63 | 1006.0 |
| 20260508223537 | 71 | 350 | 0.0 | 0.0 | 0.00 | 0.00 | 0.00 | 63 | 1006.1 |
| 20260508223024 | 71 | 351 | 0.0 | 0.0 | 0.00 | 0.00 | 0.00 | 61 | 1006.4 |
| 20260508222550 | 72 | 284 | 0.0 | 0.0 | 0.00 | 0.00 | 0.00 | 61 | 1006.6 |
| 20260508222039 | 73 | 274 | 0.0 | 0.0 | 0.00 | 0.00 | 0.00 | 62 | 1006.5 |
| 20260508221526 | 73 | 269 | 0.0 | 0.0 | 0.00 | 0.00 | 0.00 | 57 | 1006.3 |
| 20260508221032 | 73 | 292 | 0.0 | 0.0 | 0.00 | 0.00 | 0.00 | 55 | 1006.4 |
| 20260508220538 | 73 | 218 | 0.0 | 0.0 | 0.00 | 0.00 | 0.00 | 51 | 1006.4 |
| 20260508220024 | 74 | 218 | 0.0 | 2.6 | 0.00 | 0.00 | 0.00 | 49 | 1006.4 |
| 20260508215531 | 74 | 196 | 0.0 | 2.6 | 0.00 | 0.00 | 0.00 | 48 | 1006.5 |
| 20260508215038 | 74 | 236 | 0.0 | 0.9 | 0.00 | 0.00 | 0.00 | 59 | 1006.6 |
| 20260508214545 | 75 | 243 | 0.0 | 0.0 | 0.00 | 0.00 | 0.00 | 57 | 1006.5 |
| 20260508214032 | 75 | 243 | 0.0 | 0.0 | 0.00 | 0.00 | 0.00 | 53 | 1006.6 |
| 20260508213559 | 76 | 255 | 0.0 | 0.0 | 0.00 | 0.00 | 0.00 | 50 | 1006.7 |
| 20260508213025 | 76 | 267 | 0.0 | 0.0 | 0.00 | 0.00 | 0.00 | 48 | 1006.4 |
| 20260508212536 | 76 | 229 | 0.0 | 0.9 | 0.00 | 0.00 | 0.00 | 48 | 1006.4 |
| 20260508212022 | 76 | 298 | 0.0 | 0.9 | 0.00 | 0.00 | 0.00 | 45 | 1006.4 |
| 20260508211548 | 76 | 256 | 0.0 | 0.9 | 0.00 | 0.00 | 0.00 | 45 | 1006.3 |
| 20260508211033 | 76 | 231 | 0.0 | 0.9 | 0.00 | 0.00 | 0.00 | 43 | 1005.9 |
| 20260508210538 | 76 | 192 | 0.0 | 1.7 | 0.00 | 0.00 | 0.00 | 43 | 1005.6 |
| 20260508210024 | 76 | 229 | 0.0 | 1.7 | 0.00 | 0.00 | 0.00 | 42 | 1005.8 |
| 20260508205531 | 76 | 271 | 0.0 | 1.7 | 0.00 | 0.00 | 0.00 | 43 | 1006.0 |
| 20260508205037 | 77 | 207 | 0.0 | 3.5 | 0.00 | 0.00 | 0.00 | 43 | 1006.0 |
| 20260508204543 | 77 | 216 | 0.0 | 3.5 | 0.00 | 0.00 | 0.00 | 43 | 1006.0 |
| 20260508204028 | 77 | 255 | 0.0 | 2.6 | 0.00 | 0.00 | 0.00 | 42 | 1006.0 |
| 20260508203534 | 77 | 207 | 0.0 | 3.5 | 0.00 | 0.00 | 0.00 | 41 | 1006.1 |
| 20260508203024 | 78 | 254 | 0.9 | 3.5 | 0.00 | 0.00 | 0.00 | 43 | 1006.3 |
| 20260508202530 | 77 | 250 | 0.0 | 8.7 | 0.00 | 0.00 | 0.00 | 43 | 1006.4 |
| 20260508202036 | 76 | 193 | 0.0 | 8.7 | 0.00 | 0.00 | 0.00 | 44 | 1006.5 |
| 20260508201522 | 76 | 238 | 0.0 | 7.8 | 0.00 | 0.00 | 0.00 | 44 | 1006.5 |
| 20260508201048 | 76 | 182 | 0.9 | 7.8 | 0.00 | 0.00 | 0.00 | 43 | 1006.6 |
| 20260508200533 | 76 | 184 | 0.0 | 7.0 | 0.00 | 0.00 | 0.00 | 45 | 1006.6 |
| 20260508200059 | 76 | 247 | 0.9 | 6.1 | 0.00 | 0.00 | 0.00 | 45 | 1006.7 |
| 20260508195544 | 76 | 220 | 0.0 | 4.3 | 0.00 | 0.00 | 0.00 | 44 | 1006.8 |
| 20260508195029 | 76 | 290 | 0.0 | 1.7 | 0.00 | 0.00 | 0.00 | 46 | 1006.9 |
| 20260508194535 | 76 | 200 | 0.0 | 6.1 | 0.00 | 0.00 | 0.00 | 45 | 1007.0 |
| 20260508194101 | 76 | 198 | 0.0 | 7.8 | 0.00 | 0.00 | 0.00 | 46 | 1007.1 |
| 20260508193526 | 76 | 209 | 0.0 | 7.8 | 0.00 | 0.00 | 0.00 | 45 | 1007.1 |
| 20260508193032 | 75 | 203 | 0.9 | 7.8 | 0.00 | 0.00 | 0.00 | 45 | 1007.2 |
| 20260508192522 | 75 | 259 | 0.0 | 5.2 | 0.00 | 0.00 | 0.00 | 43 | 1007.4 |
| 20260508192028 | 75 | 189 | 0.9 | 5.2 | 0.00 | 0.00 | 0.00 | 46 | 1007.5 |
| 20260508191533 | 75 | 196 | 0.9 | 5.2 | 0.00 | 0.00 | 0.00 | 47 | 1007.5 |
| 20260508191039 | 74 | 151 | 0.0 | 6.1 | 0.00 | 0.00 | 0.00 | 48 | 1007.5 |
| 20260508190526 | 74 | 179 | 0.9 | 6.1 | 0.00 | 0.00 | 0.00 | 49 | 1007.6 |
| 20260508190032 | 74 | 214 | 0.9 | 7.8 | 0.00 | 0.00 | 0.00 | 48 | 1007.6 |
| 20260508185538 | 74 | 214 | 0.9 | 7.8 | 0.00 | 0.00 | 0.00 | 48 | 1007.6 |
| 20260508185025 | 74 | 216 | 0.9 | 5.2 | 0.00 | 0.00 | 0.00 | 47 | 1007.6 |
| 20260508184550 | 74 | 210 | 0.9 | 10.4 | 0.00 | 0.00 | 0.00 | 47 | 1007.7 |
| 20260508184034 | 74 | 201 | 0.9 | 10.4 | 0.00 | 0.00 | 0.00 | 48 | 1007.8 |
| 20260508183539 | 73 | 175 | 0.0 | 3.5 | 0.00 | 0.00 | 0.00 | 50 | 1007.9 |
| 20260508183025 | 73 | 219 | 0.0 | 6.1 | 0.00 | 0.00 | 0.00 | 50 | 1008.0 |
| 20260508182533 | 73 | 227 | 0.9 | 6.1 | 0.00 | 0.00 | 0.00 | 51 | 1008.0 |
| 20260508182037 | 73 | 196 | 0.0 | 10.4 | 0.00 | 0.00 | 0.00 | 51 | 1008.1 |
| 20260508181521 | 73 | 198 | 0.9 | 10.4 | 0.00 | 0.00 | 0.00 | 51 | 1008.3 |
| 20260508181026 | 73 | 184 | 0.9 | 6.1 | 0.00 | 0.00 | 0.00 | 50 | 1008.3 |
| 20260508180531 | 73 | 169 | 0.9 | 5.2 | 0.00 | 0.00 | 0.00 | 50 | 1008.4 |
| 20260508180036 | 73 | 278 | 0.9 | 7.0 | 0.00 | 0.00 | 0.00 | 51 | 1008.4 |
| 20260508175541 | 72 | 244 | 1.7 | 6.1 | 0.00 | 0.00 | 0.00 | 50 | 1008.5 |
| 20260508175025 | 72 | 204 | 0.0 | 4.3 | 0.00 | 0.00 | 0.00 | 54 | 1008.6 |
| 20260508174530 | 72 | 190 | 0.0 | 4.3 | 0.00 | 0.00 | 0.00 | 54 | 1008.7 |
| 20260508174035 | 72 | 261 | 0.9 | 4.3 | 0.00 | 0.00 | 0.00 | 54 | 1008.8 |
| 20260508173539 | 72 | 187 | 0.9 | 4.3 | 0.00 | 0.00 | 0.00 | 52 | 1008.8 |
| 20260508173022 | 71 | 202 | 0.9 | 5.2 | 0.00 | 0.00 | 0.00 | 53 | 1009.0 |
| 20260508172532 | 71 | 232 | 0.9 | 7.0 | 0.00 | 0.00 | 0.00 | 53 | 1009.1 |
| 20260508172036 | 71 | 187 | 0.9 | 6.1 | 0.00 | 0.00 | 0.00 | 54 | 1009.2 |
| 20260508171522 | 71 | 192 | 0.9 | 7.8 | 0.00 | 0.00 | 0.00 | 54 | 1009.2 |
| 20260508171029 | 71 | 250 | 1.7 | 8.7 | 0.00 | 0.00 | 0.00 | 53 | 1009.3 |
| 20260508170534 | 71 | 248 | 1.7 | 8.7 | 0.00 | 0.00 | 0.00 | 53 | 1009.5 |
| 20260508170037 | 71 | 257 | 0.9 | 5.2 | 0.00 | 0.00 | 0.00 | 55 | 1009.4 |
| 20260508165521 | 70 | 191 | 0.9 | 3.5 | 0.00 | 0.00 | 0.00 | 55 | 1009.6 |